Location: Hermaringen
(48.5952°N, 10.2585°E)
Time: 23:10:12
(UTC+00:00)

Altair - Pass Details

Date: 17 February 2026
Orbit: 1502 x 1682 km, 47.2° (Epoch: 10 March)

Event Time Altitude Azimuth Distance (km) Brightness Sun altitude
Exits shadow 05:27:54 - 246° (WSW) 4,154 9.2 -9.8°
Reaches altitude 10° 05:29:24 10° 245° (WSW) 3,669 9.0 -9.5°
Maximum altitude 05:38:36 74° 163° (SSE) 1,600 7.7 -8.0°
Drops below altitude 10° 05:48:08 10° 81° (E) 3,795 11.0 -6.5°
Sets 05:51:17 0° 80° (E) 4,806 11.6 -6.0°
